sat.trackr.live / text

‹ back to catalog

STARLINK-34743

NORAD 64937 · 2025-158F

PAYLOAD ACTIVE UNKNOWN

§ Identity

Operator
Country
US
Launch date
2025-07-27
Launch site
AFWTR
Launch vehicle
Mass (kg)
RCS (m²)

Purposes: comms

External: N2YO · Heavens-Above · Gunter

§ Orbital elements

Epoch: 2026-05-25T02:33:16.981056Z

Period
95.64 min
Inclination
97.4536°
Eccentricity
0.0002161
Mean motion
15.05657573 rev/d
Perigee alt
548.0 km
Apogee alt
551.0 km
Semi-major
6,927.6 km
B*
2.9629e-4
RAAN
9.0210°
Arg perigee
68.6073°
Mean anomaly
291.5384°
Rev number
4,685

§ Raw data

STARLINK-347431 64937U 25158F   26145.10644654  .00004220  00000+0  29629-3 0  99962 64937  97.4536   9.0210 0002161  68.6073 291.5384 15.05657573 46856

JSON: /api/v1/satellites/64937 · /tle

For live sub-satellite position, see the globe view (requires WebGL).

§ Visibility from observer

Set your observer location to see the next 7 days of passes ≥ 10°. The values pass through the URL so the page stays shareable.

No JS? Fill the form by hand. The geolocation button needs JavaScript.